Weather History for Prague, Czech Republic

Change the Weather History Date:

Friday, February 22, 2013

  Actual Average Record
Temperature  
Mean Temperature 20 °F -  
Max Temperature 23 °F 44 °F 51 °F (2007)
Min Temperature 18 °F 28 °F 6 °F (2011)
Degree Days  
Heating Degree Days 44    
Moisture  
Dew Point 18 °F    
Average Humidity 87    
Maximum Humidity 93    
Minimum Humidity 74    
Precipitation  
Precipitation 0.04 in 0.04 in - ()
Sea Level Pressure  
Sea Level Pressure 29.90 in    
Wind  
Wind Speed 8 mph ()    
Max Wind Speed 14 mph    
Max Gust Speed -    
Visibility 3.0 miles    
Events Snow    
Averages and records for this station are not official NWS values.
T = Trace of Precipitation, MM = Missing Value Source: Averaged Metar Reports

Daily Weather History Graph

Daily Weather History Graph

Search for Another Location

Airport:

Trip Planner

Search our weather history database for the weather conditions in past years. The results will help you decide how hot, cold, wet, or windy it might be!

Date:

Astronomy

Feb. 22, 2013 Rise Set
Actual Time 7:00 AM CET 5:33 PM CET
Civil Twilight 6:27 AM CET 6:06 PM CET
Nautical Twilight 5:49 AM CET 6:43 PM CET
Astronomical Twilight 5:12 AM CET 7:21 PM CET
Moon 2:15 PM CET (2/22) 4:48 AM CET (2/22)
Length of Visible Light 11h 38m
Length of Day
10h 32m
Waxing Gibbous, 88% of the Moon is Illuminated
Feb 22
Waxing Gibbous
Feb 25
Full
Mar 4
Last Quarter
Mar 11
New
Mar 19
First Quarter

Hourly Weather History & Observations

Time (CET) Temp. Windchill Dew Point Humidity Pressure Visibility Wind Dir Wind Speed Gust Speed Precip Events Conditions
12:00 AM 19.4 °F 12.8 °F 17.6 °F 93% 30.04 in 6.2 mi North 4.6 mph - N/A Snow Light Snow
12:30 AM 19.4 °F 11.5 °F 17.6 °F 93% 30.01 in 6.2 mi NNE 5.8 mph - N/A Snow Light Snow
1:00 AM 20 °F - 17 °F 84% 30.12 in 6 mi NE 6.7 mph - - Snow Light Snow
1:00 AM 21.2 °F 14.9 °F 17.6 °F 86% 30.01 in 6.2 mi NNE 4.6 mph - N/A Snow Light Snow
1:30 AM 21.2 °F 13.6 °F 17.6 °F 86% 30.01 in 6.2 mi North 5.8 mph - N/A   Overcast
2:00 AM 19.4 °F 9.5 °F 14.0 °F 80% 30.01 in 6.2 mi East 8.1 mph - N/A   Mostly Cloudy
2:30 AM 19.4 °F 11.5 °F 14.0 °F 80% 30.01 in 5.6 mi East 5.8 mph - N/A Snow Light Snow
3:00 AM 19.4 °F 10.4 °F 15.8 °F 86% 29.98 in 5.6 mi East 6.9 mph - N/A   Overcast
3:30 AM 19.4 °F 10.4 °F 15.8 °F 86% 29.98 in 4.3 mi East 6.9 mph - N/A Snow Light Snow
4:00 AM 19.4 °F 10.4 °F 15.8 °F 86% 29.98 in 5.0 mi ENE 6.9 mph - N/A   Overcast
4:30 AM 19.4 °F 10.4 °F 15.8 °F 86% 29.95 in 4.3 mi ENE 6.9 mph - N/A Snow Light Snow
5:00 AM 19.4 °F 11.5 °F 15.8 °F 86% 29.95 in 4.3 mi NE 5.8 mph - N/A Snow Light Snow
5:30 AM 19.4 °F 9.5 °F 15.8 °F 86% 29.95 in 4.3 mi ENE 8.1 mph - N/A Snow Light Snow
6:00 AM 19.4 °F 9.5 °F 15.8 °F 86% 29.95 in 3.7 mi NE 8.1 mph - N/A Snow Light Snow
6:30 AM 19.4 °F 10.4 °F 15.8 °F 86% 29.95 in 3.7 mi NNE 6.9 mph - N/A   Overcast
7:00 AM 19 °F - 16 °F 81% 30.06 in 4 mi ENE 11.2 mph - - Snow Light Snow
7:00 AM 19.4 °F 9.5 °F 15.8 °F 86% 29.95 in 3.7 mi NE 8.1 mph - N/A Snow Light Snow
7:30 AM 19.4 °F 6.6 °F 14.0 °F 80% 29.95 in 5.0 mi East 12.7 mph - N/A   Overcast
8:00 AM 19.4 °F 6.6 °F 14.0 °F 80% 29.95 in 5.0 mi ENE 12.7 mph - N/A Snow Light Snow
8:12 AM 19.4 °F 7.2 °F 14.0 °F 80% 29.95 in 3.1 mi ENE 11.5 mph - N/A Snow Light Snow
8:30 AM 19.4 °F 7.2 °F 15.8 °F 86% 29.95 in 3.7 mi ENE 11.5 mph - N/A Snow Light Snow
9:00 AM 19.4 °F 7.2 °F 14.0 °F 80% 29.95 in 3.7 mi NE 11.5 mph - N/A Snow Light Snow
9:30 AM 19.4 °F 7.9 °F 14.0 °F 80% 29.95 in 4.3 mi NE 10.4 mph - N/A Snow Light Snow
10:00 AM 19.4 °F 8.6 °F 14.0 °F 80% 29.95 in 4.3 mi NE 9.2 mph - N/A Snow Light Snow
10:30 AM 19.4 °F 7.9 °F 14.0 °F 80% 29.95 in 5.0 mi NE 10.4 mph - N/A Snow Light Snow
11:00 AM 19.4 °F 8.6 °F 14.0 °F 80% 29.92 in 5.0 mi NE 9.2 mph - N/A   Mostly Cloudy
11:30 AM 21.2 °F 8.9 °F 14.0 °F 74% 29.92 in 5.0 mi NE 12.7 mph - N/A   Scattered Clouds
12:00 PM 21.2 °F 9.5 °F 14.0 °F 74% 29.92 in 2.5 mi NNE 11.5 mph - N/A Snow Light Snow
12:14 PM 21.2 °F 8.9 °F 15.8 °F 80% 29.89 in 1.6 mi NNE 12.7 mph - N/A Snow Snow
12:30 PM 21.2 °F 9.5 °F 15.8 °F 80% 29.89 in 1.6 mi North 11.5 mph - N/A Snow Light Snow
1:00 PM 22 °F - 17 °F 75% 29.99 in 1 mi North 11.2 mph - - Snow Light Snow
1:00 PM 21.2 °F 8.9 °F 17.6 °F 86% 29.89 in 1.1 mi North 12.7 mph - N/A Snow Light Snow
1:30 PM 23.0 °F 11.1 °F 17.6 °F 80% 29.86 in 1.6 mi North 12.7 mph - N/A Snow Light Snow
2:00 PM 23.0 °F 10.6 °F 19.4 °F 86% 29.86 in 1.2 mi North 13.8 mph - N/A Snow Light Snow
2:30 PM 23.0 °F 10.6 °F 19.4 °F 86% 29.86 in 1.6 mi North 13.8 mph - N/A Snow Light Snow
2:41 PM 23.0 °F 10.6 °F 19.4 °F 86% 29.83 in 0.8 mi North 13.8 mph - N/A Snow Snow
3:00 PM 23.0 °F 10.6 °F 19.4 °F 86% 29.83 in 1.4 mi North 13.8 mph - N/A Snow Light Snow
3:11 PM 23.0 °F 10.6 °F 19.4 °F 86% 29.83 in 2.2 mi North 13.8 mph - N/A Snow Light Snow
3:22 PM 23.0 °F 11.7 °F 19.4 °F 86% 29.83 in 1.1 mi North 11.5 mph - N/A Snow Light Snow
3:30 PM 23.0 °F 11.7 °F 19.4 °F 86% 29.83 in 1.0 mi North 11.5 mph - N/A Snow Snow
3:49 PM 23.0 °F 11.1 °F 19.4 °F 86% 29.83 in 1.9 mi North 12.7 mph - N/A Snow Light Snow
4:00 PM 23.0 °F 10.6 °F 21.2 °F 93% 29.83 in 1.3 mi North 13.8 mph - N/A Snow Light Snow
4:30 PM 23.0 °F 11.7 °F 21.2 °F 93% 29.83 in 1.2 mi North 11.5 mph - N/A Snow Light Snow
5:00 PM 23.0 °F 11.7 °F 21.2 °F 93% 29.83 in 1.0 mi North 11.5 mph - N/A Snow Snow
5:30 PM 23.0 °F 11.7 °F 21.2 °F 93% 29.83 in 1.1 mi North 11.5 mph - N/A Snow Snow
6:00 PM 23.0 °F 11.7 °F 21.2 °F 93% 29.83 in 2.2 mi NNE 11.5 mph - N/A Snow Light Snow
6:30 PM 23.0 °F 11.1 °F 21.2 °F 93% 29.83 in 1.4 mi NNE 12.7 mph - N/A Snow Snow
7:00 PM 22 °F - 21 °F 92% 29.94 in 1 mi NNE 13.4 mph - - Snow Snow
7:00 PM 23.0 °F 11.1 °F 21.2 °F 93% 29.83 in 1.3 mi NNE 12.7 mph - N/A Snow Snow
7:30 PM 23.0 °F 11.7 °F 21.2 °F 93% 29.83 in 1.4 mi NNE 11.5 mph - N/A Snow Snow
8:00 PM 23.0 °F 11.1 °F 21.2 °F 93% 29.83 in 1.4 mi NNE 12.7 mph - N/A Snow Snow
8:30 PM 23.0 °F 11.7 °F 21.2 °F 93% 29.83 in 1.9 mi NNE 11.5 mph - N/A Snow Light Snow
9:00 PM 23.0 °F 12.4 °F 21.2 °F 93% 29.83 in 1.9 mi North 10.4 mph - N/A Snow Light Snow
9:30 PM 23.0 °F 12.4 °F 21.2 °F 93% 29.83 in 1.1 mi North 10.4 mph - N/A Snow Snow
9:45 PM 23.0 °F 12.4 °F 21.2 °F 93% 29.83 in 1.6 mi North 10.4 mph - N/A Snow Light Snow
10:00 PM 23.0 °F 12.4 °F 21.2 °F 93% 29.83 in 1.6 mi North 10.4 mph - N/A Snow Light Snow
10:22 PM 23.0 °F 12.4 °F 21.2 °F 93% 29.83 in 1.9 mi North 10.4 mph - N/A Snow Light Snow
10:30 PM 23.0 °F 12.4 °F 21.2 °F 93% 29.83 in 1.9 mi North 10.4 mph - N/A Snow Light Snow
11:00 PM 23.0 °F 11.7 °F 21.2 °F 93% 29.83 in 1.5 mi NNE 11.5 mph - N/A Snow Light Snow
11:18 PM 23.0 °F 11.7 °F 21.2 °F 93% 29.83 in 1.7 mi NNE 11.5 mph - N/A Snow Light Snow
11:30 PM 23.0 °F 11.7 °F 21.2 °F 93% 29.83 in 1.5 mi North 11.5 mph - N/A Snow Light Snow